Home   Weather   St. George   Past weeks
Flag for USA

Past Weather in St. George, Utah, USA — Yesterday and Last 2 Weeks

Now
56 °F

Clear.


Feels Like: 55 °F
Forecast: 84 / 48 °F
Wind: 5 mph from Northeast

Location: Saint George

Current Time: Oct 16, 2019 at 3:36:22 am

Latest Report: Oct 16, 2019 at 2:56 am


Visibility: 10 mi

Pressure: 30.08 "Hg (27.21 "Hg at 842m altitude)

Humidity: 22%

Dew Point: 17 °F

Location of St. GeorgeLocation

Past Weather in St. George — Graph

°F

St. George Temperature Yesterday

Maximum temperature yesterday: 80 °F (at 4:56 pm)
Minimum temperature yesterday: 47 °F (at 7:56 am)
Average temperature yesterday: 62 °F

High & Low Weather Summary for the Past Weeks

 TemperatureHumidityPressure
High86 °F (Oct 8, 4:56 pm)39% (Oct 4, 5:56 am)30.34 "Hg (Oct 4, 5:56 am)
Low37 °F (Oct 11, 7:56 am)6% (Oct 11, 4:56 pm)29.54 "Hg (Oct 9, 5:56 pm)
Average62 °F16%29.97 "Hg
* Reported Oct 1 1:56 am — Oct 16 1:56 am, St. George. Weather by CustomWeather, © 2019

Note: Actual official high and low records may vary slightly from our data, if they occured in-between our weather recording intervals... More about our weather records

Advertising

St. George Weather History for the Previous 24 Hours

Scroll right to see more
 ConditionsComfort  
Time TempWeatherWind HumidityBarometerVisibility
1:56 am
Wed, Oct 16
57 °FClear.6 mph19%30.08 "Hg10 mi
12:56 am58 °FClear.5 mph19%30.08 "Hg10 mi
11:56 pm
Tue, Oct 15
61 °FClear.No wind17%30.08 "Hg10 mi
10:56 pm62 °FClear.3 mph17%30.08 "Hg10 mi
9:56 pm70 °FClear.No wind15%30.06 "Hg10 mi
8:56 pm67 °FClear.3 mph15%30.05 "Hg10 mi
7:56 pm73 °FClear.3 mph15%30.03 "Hg10 mi
6:56 pm79 °FSunny.No wind11%30.01 "Hg10 mi
5:56 pm80 °FSunny.5 mph10%30.01 "Hg10 mi
4:56 pm80 °FSunny.5 mph10%30.01 "Hg10 mi
3:56 pm78 °FSunny.3 mph12%30.03 "Hg10 mi
2:56 pm75 °FSunny.3 mph15%30.05 "Hg10 mi
1:56 pm72 °FSunny.No wind16%30.08 "Hg10 mi
12:56 pm67 °FSunny.No wind18%30.11 "Hg10 mi
11:56 am63 °FSunny.3 mph21%30.14 "Hg10 mi
10:56 am58 °FSunny.No wind24%30.17 "Hg10 mi
9:56 am54 °FSunny.No wind27%30.17 "Hg10 mi
8:56 am50 °FSunny.No wind30%30.16 "Hg10 mi
7:56 am47 °FSunny.7 mph33%30.14 "Hg10 mi
6:56 am48 °FClear.No wind32%30.12 "Hg10 mi
5:56 am48 °FClear.3 mph32%30.09 "Hg10 mi
4:56 am51 °FClear.No wind29%30.06 "Hg10 mi
3:56 am50 °FClear.6 mph30%30.04 "Hg10 mi
Weather by CustomWeather, © 2019

See weather overview